Beaufort, SC

11:13 AM EDT on August 27, 2016 (GMT -0400)
Beaufort Marine Corps Air Station

Weather History for KNBC - July, 2015

Change the Weather History Date:

Saturday, July 25, 2015

  Actual Average Record
Temperature  
Mean Temperature 81 °F -  
Max Temperature 89 °F 90 °F 100 °F (1932)
Min Temperature 73 °F 73 °F 68 °F (1977)
Cooling Degree Days 16    
Growing Degree Days 31 (Base 50)    
Moisture  
Dew Point 70 °F    
Average Humidity 71    
Maximum Humidity 94    
Minimum Humidity 40    
Precipitation  
Precipitation 0.00 in - - ()
Sea Level Pressure  
Sea Level Pressure 29.95 in    
Wind  
Wind Speed 7 mph (ENE)    
Max Wind Speed 12 mph    
Max Gust Speed 21 mph    
Visibility 10 miles    
Events      
Averages and records for this station are not official NWS values.
T = Trace of Precipitation, MM = Missing Value Source: NWS Daily Summary

Daily Weather History Graph

Daily Weather History Graph

Search for Another Location

Airport or City:

Trip Planner

Search our weather history database for the weather conditions in past years. The results will help you decide how hot, cold, wet, or windy it might be!

Date:

Astronomy

Jul. 25, 2015 Rise Set
Actual Time 6:32 AM EDT 8:25 PM EDT
Civil Twilight 6:05 AM EDT 8:53 PM EDT
Nautical Twilight 5:32 AM EDT 9:26 PM EDT
Astronomical Twilight 4:57 AM EDT 10:01 PM EDT
Moon 3:05 PM EDT (7/25) 1:28 AM EDT (7/25)
Length of Visible Light 14h 47m
Length of Day
13h 53m
Waxing Gibbous, 65% of the Moon is Illuminated
Jul 25
Waxing Gibbous
Jul 31
Full
Aug 6
Last Quarter
Aug 14
New
Aug 22
First Quarter

Hourly Weather History & Observations

Time (EDT) Temp. Heat Index Dew Point Humidity Pressure Visibility Wind Dir Wind Speed Gust Speed Precip Events Conditions
12:56 AM 75.0 °F - 72.0 °F 90% 29.93 in 10.0 mi NNE 5.8 mph - N/A   Clear
1:56 AM 75.0 °F - 72.0 °F 90% 29.93 in 10.0 mi North 6.9 mph - N/A   Clear
2:56 AM 73.9 °F - 72.0 °F 93% 29.92 in 10.0 mi NNE 5.8 mph - N/A   Partly Cloudy
3:56 AM 73.9 °F - 72.0 °F 93% 29.91 in 8.0 mi NNE 4.6 mph - N/A   Clear
4:56 AM 75.0 °F - 73.0 °F 94% 29.90 in 9.0 mi NNE 6.9 mph - N/A   Clear
5:56 AM 75.0 °F - 73.0 °F 94% 29.92 in 10.0 mi NNE 5.8 mph - N/A   Clear
6:56 AM 75.0 °F - 73.0 °F 94% 29.94 in 7.0 mi NNE 8.1 mph - N/A   Clear
7:56 AM 77.0 °F - 73.9 °F 90% 29.95 in 10.0 mi NE 6.9 mph - N/A   Clear
8:56 AM 80.1 °F 84.5 °F 73.9 °F 81% 29.97 in 10.0 mi ENE 8.1 mph - N/A   Partly Cloudy
9:56 AM 82.0 °F 87.9 °F 73.9 °F 76% 29.98 in 10.0 mi NE 10.4 mph - N/A   Scattered Clouds
10:09 AM 82.0 °F 87.9 °F 73.9 °F 76% 29.98 in 10.0 mi NE 8.1 mph - N/A   Mostly Cloudy
10:20 AM 82.9 °F 88.0 °F 72.0 °F 69% 29.98 in 10.0 mi NE 11.5 mph - N/A   Scattered Clouds
10:56 AM 84.0 °F 88.4 °F 70.0 °F 63% 29.98 in 10.0 mi ENE 10.4 mph - N/A   Partly Cloudy
11:56 AM 86.0 °F 89.4 °F 68.0 °F 55% 29.98 in 10.0 mi East 11.5 mph 18.4 mph N/A   Clear
12:56 PM 88.0 °F 89.3 °F 64.0 °F 45% 29.98 in 10.0 mi ENE 9.2 mph - N/A   Clear
1:56 PM 88.0 °F 88.4 °F 62.1 °F 42% 29.98 in 10.0 mi NE 9.2 mph 18.4 mph N/A   Clear
2:56 PM 89.1 °F 89.3 °F 62.1 °F 40% 29.96 in 10.0 mi East 9.2 mph - N/A   Clear
3:56 PM 87.1 °F 91.3 °F 69.1 °F 55% 29.95 in 10.0 mi East 11.5 mph 19.6 mph N/A   Clear
4:56 PM 87.1 °F 90.6 °F 68.0 °F 53% 29.94 in 10.0 mi East 10.4 mph - N/A   Clear
5:56 PM 86.0 °F 88.2 °F 66.0 °F 51% 29.93 in 10.0 mi ESE 10.4 mph 20.7 mph N/A   Clear
6:56 PM 86.0 °F 88.2 °F 66.0 °F 51% 29.93 in 10.0 mi East 8.1 mph - N/A   Clear
7:56 PM 84.0 °F 86.3 °F 66.0 °F 55% 29.94 in 10.0 mi ESE 5.8 mph - N/A   Clear
8:56 PM 80.1 °F 83.6 °F 71.1 °F 74% 29.94 in 10.0 mi ESE 5.8 mph - N/A   Clear
9:56 PM 79.0 °F - 64.9 °F 62% 29.96 in 10.0 mi East 4.6 mph - N/A   Clear
10:56 PM 75.9 °F - 66.0 °F 71% 29.95 in 10.0 mi NE 5.8 mph - N/A   Clear
11:56 PM 75.9 °F - 69.1 °F 79% 29.97 in 10.0 mi NE 5.8 mph - N/A   Clear